Total_Precipitation_Accumulation
1.89 1.97 2.14 2.17 1.91 1.82 1.85 1.83 1.72 1.18 1.04 1.30 1.49 1.61 1.74 1.58 1.84 2.28 1.34 1.40 2.20 2.24 0.58 0.10 0.16 0.31 0.56 0.96 1.29 1.17 1.53 1.03 1.11 1.48 1.26 0.87 0.59 0.48 0.24 0.12 0.20 0.50 0.49 0.46 0.41 0.63 0.24 0.01 0.01 0.13 0.24 0.09 0.14 0.22
1.93 1.83 1.90 1.93 1.94 2.17 1.98 1.58 1.52 1.39 1.05 0.98 1.25 1.52 1.81 1.66 1.73 2.11 1.42 1.05 1.61 2.23 1.11 0.23 0.15 0.19 0.32 0.66 1.26 1.26 1.71 1.08 1.22 1.32 1.28 1.06 0.77 0.56 0.39 0.25 0.11 0.65 0.52 0.41 0.23 0.16 0.04 0.01 0.01 0.01 0.02 0.08 0.07 0.18
1.99 2.02 1.96 1.90 1.73 1.72 2.14 1.70 1.45 1.35 1.21 1.15 1.19 1.43 1.79 1.90 1.96 2.32 1.65 1.41 2.00 2.09 1.08 0.54 0.32 0.23 0.23 0.41 1.10 1.77 1.21 1.54 1.50 1.53 1.93 1.25 1.06 0.73 0.50 0.36 0.23 0.21 0.14 0.16 0.13 0.05 0.04 0.16 0.18 0.08 0.04 0.05 0.05 0.13
2.01 2.09 2.08 1.91 1.88 1.66 1.88 2.17 1.67 1.37 1.09 0.99 1.07 1.16 1.29 1.64 1.99 2.10 1.63 1.28 2.08 2.50 1.71 0.50 0.16 0.24 0.28 0.37 0.80 1.37 1.46 1.54 2.37 2.31 3.09 2.46 1.40 0.87 0.59 0.45 0.45 0.23 0.15 0.11 0.07 0.03 0.03 0.03 0.05 0.07 0.09 0.08 0.09 0.08
2.18 2.11 2.09 1.97 1.86 1.93 1.78 2.05 2.02 1.64 1.30 1.08 1.26 1.54 1.55 1.74 1.95 2.04 1.52 1.32 1.61 2.57 1.96 0.79 0.35 0.26 0.32 0.39 0.87 1.66 2.28 2.55 3.21 3.81 3.52 2.30 1.24 1.07 0.64 0.80 0.60 0.21 0.20 0.18 0.10 0.02 0.13 0.08 0.03 0.02 0.06 0.08 0.12 0.14
2.38 2.18 2.16 2.12 2.11 2.05 1.91 1.68 1.72 1.58 1.62 1.47 1.38 1.90 1.99 2.25 2.77 2.67 2.25 1.44 1.55 2.18 2.74 1.71 0.66 0.34 0.41 0.69 1.05 1.65 2.03 2.35 2.59 2.78 2.50 1.85 1.26 1.64 1.37 0.85 0.43 0.25 0.16 0.18 0.17 0.07 0.09 0.07 0.04 0.06 0.13 0.08 0.11 0.14
2.28 2.17 2.05 2.17 2.29 2.31 2.04 1.69 1.68 1.53 1.56 1.81 1.90 2.10 2.43 2.55 2.67 2.69 1.91 1.40 1.57 1.86 2.70 2.35 1.20 0.54 0.55 0.94 0.91 1.41 1.88 2.04 2.04 2.21 1.70 1.29 1.11 1.59 1.41 0.76 0.53 0.44 0.30 0.16 0.10 0.18 0.20 0.13 0.15 0.10 0.13 0.13 0.15 0.21
2.64 2.72 2.60 2.32 2.36 2.47 2.23 1.83 1.97 1.77 2.01 1.97 2.36 3.02 3.47 3.43 3.33 2.75 1.72 1.60 1.72 2.21 2.41 2.25 1.32 0.82 0.64 1.09 1.09 1.16 1.81 1.92 1.97 1.79 1.40 1.11 1.08 1.31 1.55 0.97 0.75 0.60 0.40 0.31 0.25 0.29 0.33 0.28 0.22 0.18 0.18 0.20 0.20 0.32
2.51 2.57 2.79 3.01 2.99 2.67 2.55 2.38 2.42 2.33 2.70 3.19 3.72 4.69 5.16 4.42 3.12 1.92 1.60 1.78 1.94 2.80 2.86 1.67 0.91 0.92 0.63 1.07 1.16 1.29 1.58 1.88 1.74 1.76 1.21 1.11 1.26 1.53 1.31 0.97 0.84 0.81 0.69 0.65 0.38 0.32 0.35 0.34 0.31 0.31 0.28 0.32 0.34 0.55
2.40 2.45 2.47 2.70 3.13 3.41 3.38 3.26 3.13 2.92 3.38 4.34 4.91 5.56 4.70 3.24 1.92 1.71 2.98 3.90 3.91 3.22 2.45 1.57 0.63 0.70 0.74 0.84 1.13 1.21 1.30 1.42 1.49 1.23 1.02 1.23 1.54 1.51 1.41 1.29 1.21 1.15 1.14 0.81 0.58 0.69 0.50 0.46 0.46 0.51 0.53 0.57 0.59 0.78
2.31 2.38 2.51 2.69 3.10 3.48 4.10 4.43 4.16 4.53 4.95 4.70 4.65 3.78 3.20 2.82 2.90 3.37 3.90 3.32 2.56 1.89 0.96 0.54 0.48 0.64 0.65 1.03 1.14 1.07 1.49 1.09 1.51 0.76 0.81 1.20 1.40 1.78 1.40 1.25 1.26 1.24 1.18 1.17 0.93 0.89 0.69 0.67 0.68 0.58 0.58 0.59 0.61 0.62
2.42 2.34 2.61 3.00 3.25 4.06 4.60 4.99 5.82 7.11 6.27 3.86 2.71 3.32 4.28 3.93 3.72 3.58 3.00 1.66 1.02 0.40 0.21 0.41 0.55 0.66 0.66 0.93 1.29 1.20 1.52 1.48 1.23 0.69 0.96 1.21 1.76 1.66 1.20 1.24 1.23 1.18 1.05 1.13 0.89 0.84 0.78 0.72 0.68 0.62 0.63 0.64 0.65 0.69
2.49 2.30 2.54 2.98 3.52 4.14 4.68 5.01 5.89 5.98 5.37 4.48 4.87 5.94 4.69 3.93 3.02 2.05 1.30 0.59 0.26 0.19 0.39 0.70 0.71 0.74 0.77 1.21 1.59 1.45 1.39 1.06 0.72 0.81 0.79 1.11 1.23 1.13 1.19 1.01 1.00 1.01 1.05 1.08 0.99 1.00 0.80 0.74 0.65 0.61 0.68 0.79 0.70 0.59
2.62 2.55 2.72 3.23 3.65 4.07 5.09 6.21 7.13 7.42 6.57 6.41 5.87 5.27 2.88 2.32 1.11 0.69 0.48 0.36 0.42 0.43 0.45 0.44 0.64 0.72 0.65 1.05 1.25 1.21 0.86 0.77 0.80 0.57 0.60 0.78 0.67 0.62 0.59 0.74 0.68 0.68 0.58 0.56 0.71 0.70 0.60 0.51 0.60 0.50 0.41 0.34 0.25 0.19
2.80 3.15 3.28 3.26 3.60 4.43 5.61 7.10 7.96 6.98 6.59 6.47 4.69 2.99 1.73 0.85 0.64 0.49 0.40 0.33 0.23 0.19 0.22 0.28 0.61 0.61 0.71 1.10 0.96 0.79 0.82 0.60 0.32 0.32 0.41 0.45 0.35 0.26 0.22 0.32 0.56 0.48 0.35 0.20 0.16 0.17 0.21 0.24 0.28 0.27 0.20 0.19 0.19 0.22
3.77 4.60 4.21 3.81 3.87 4.53 6.04 7.79 8.29 7.13 7.99 6.03 3.89 2.08 0.88 0.40 0.31 0.23 0.18 0.15 0.14 0.16 0.36 0.65 0.99 1.14 0.95 0.79 0.76 0.63 0.58 0.41 0.37 0.29 0.30 0.18 0.09 0.08 0.12 0.24 0.36 0.25 0.18 0.19 0.15 0.08 0.06 0.05 0.05 0.10 0.16 0.18 0.22 0.26
4.77 5.17 4.28 3.75 4.09 5.08 6.46 9.01 10.57 9.42 7.83 5.70 2.50 0.91 0.54 0.50 0.46 0.27 0.15 0.10 0.18 0.42 0.58 0.90 1.29 0.92 0.71 0.77 0.42 0.29 0.37 0.33 0.23 0.19 0.10 0.02 0.01 0.03 0.08 0.19 0.30 0.18 0.19 0.26 0.22 0.09 0.03 0.01 0.02 0.02 0.05 0.06 0.09 0.10
4.43 3.71 3.32 3.66 4.73 6.28 7.90 8.50 9.17 7.93 5.44 2.54 0.97 0.55 0.39 0.39 0.30 0.19 0.09 0.16 0.41 0.66 0.64 0.99 0.75 0.94 0.87 0.68 0.46 0.49 0.41 0.25 0.08 0.04 0.01 0.01 0.00 0.00 0.02 0.11 0.20 0.22 0.21 0.18 0.12 0.06 0.04 0.03 0.04 0.07 0.11 0.12 0.10 0.08
3.15 2.74 3.04 3.67 5.32 7.27 8.56 8.22 5.81 4.36 2.19 0.96 0.60 0.51 0.30 0.20 0.13 0.11 0.08 0.13 0.30 0.45 0.82 1.18 1.47 1.12 0.51 0.54 0.56 0.36 0.20 0.06 0.03 0.01 0.00 0.00 0.00 0.00 0.00 0.00 0.01 0.03 0.06 0.09 0.09 0.08 0.08 0.07 0.08 0.17 0.17 0.12 0.14 0.16
4.12 4.09 3.83 3.89 5.23 7.10 6.35 5.56 3.86 2.08 1.13 0.88 0.70 0.63 0.53 0.34 0.15 0.10 0.10 0.16 0.27 0.64 1.32 1.43 0.89 0.49 0.39 0.42 0.39 0.21 0.07 0.01 0.01 0.01 0.00 0.00 0.00 0.00 0.00 0.00 0.00 0.01 0.02 0.02 0.02 0.02 0.04 0.09 0.07 0.05 0.06 0.08 0.16 0.12
5.79 5.62 5.37 5.10 6.36 6.31 5.02 3.00 2.45 1.74 1.05 1.05 1.18 0.91 0.98 0.69 0.46 0.35 0.52 0.52 1.03 1.43 1.15 0.80 0.52 0.42 0.36 0.28 0.16 0.06 0.02 0.01 0.00 0.00 0.00 0.00 0.00 0.01 0.01 0.01 0.01 0.02 0.03 0.04 0.10 0.12 0.10 0.09 0.09 0.08 0.09 0.09 0.07 0.09
4.82 4.48 5.21 5.02 5.85 4.99 3.73 2.30 1.66 1.36 0.94 1.17 1.32 1.14 1.19 1.18 1.13 1.03 0.98 1.53 1.63 0.90 0.61 0.53 0.41 0.30 0.19 0.12 0.08 0.07 0.05 0.04 0.02 0.01 0.00 0.00 0.00 0.02 0.02 0.02 0.05 0.14 0.13 0.14 0.18 0.21 0.17 0.15 0.23 0.25 0.18 0.14 0.13 0.12
3.33 3.17 4.10 4.35 4.17 3.11 2.60 1.45 1.25 1.43 1.36 1.52 1.38 1.34 1.45 1.31 1.34 1.39 1.75 1.34 0.87 0.65 0.53 0.45 0.38 0.29 0.20 0.11 0.07 0.04 0.05 0.07 0.08 0.06 0.03 0.01 0.01 0.01 0.01 0.04 0.10 0.29 0.29 0.16 0.16 0.28 0.29 0.21 0.23 0.25 0.23 0.20 0.19 0.23
3.75 4.53 4.59 3.80 2.33 1.61 1.25 1.19 0.91 0.83 1.13 1.23 1.22 1.11 0.99 1.09 1.36 1.43 1.06 0.52 0.52 0.51 0.45 0.46 0.39 0.29 0.25 0.22 0.19 0.15 0.11 0.09 0.13 0.13 0.10 0.10 0.14 0.08 0.03 0.07 0.09 0.12 0.18 0.21 0.27 0.31 0.30 0.33 0.34 0.35 0.30 0.38 0.36 0.40
6.19 5.53 3.08 2.30 1.18 0.74 0.49 0.53 0.63 0.58 0.66 0.78 0.80 0.82 0.77 0.90 1.07 0.84 0.46 0.39 0.51 0.52 0.44 0.37 0.39 0.43 0.47 0.39 0.27 0.24 0.22 0.25 0.37 0.33 0.19 0.22 0.44 0.38 0.20 0.10 0.07 0.11 0.25 0.62 0.52 0.40 0.40 0.48 0.54 0.47 0.41 0.46 0.49 0.50
3.48 1.96 1.65 0.63 0.27 0.13 0.16 0.21 0.31 0.37 0.45 0.58 0.59 0.57 0.66 0.73 0.66 0.48 0.30 0.36 0.46 0.57 0.61 0.53 0.45 0.42 0.42 0.42 0.49 0.50 0.37 0.30 0.45 0.57 0.39 0.36 0.44 0.55 0.42 0.28 0.25 0.22 0.29 0.92 1.17 0.90 0.63 0.54 0.68 0.62 0.56 0.49 0.62 0.78
1.53 0.71 0.44 0.18 0.09 0.11 0.08 0.09 0.12 0.22 0.40 0.37 0.33 0.36 0.50 0.67 0.45 0.21 0.21 0.28 0.39 0.47 0.52 0.56 0.54 0.51 0.50 0.45 0.45 0.48 0.51 0.55 0.55 0.50 0.39 0.43 0.46 0.51 0.74 0.98 0.77 0.38 0.60 1.06 1.12 1.05 0.97 0.76 0.75 0.69 0.69 0.61 0.59 0.58
0.41 0.14 0.12 0.08 0.07 0.09 0.10 0.12 0.16 0.18 0.17 0.13 0.20 0.30 0.34 0.22 0.11 0.11 0.16 0.25 0.38 0.46 0.54 0.62 0.61 0.53 0.57 0.58 0.65 0.78 0.76 0.68 0.64 0.50 0.46 0.47 0.56 0.80 0.91 0.95 1.03 1.24 1.35 1.28 1.50 1.37 1.20 1.07 0.94 0.84 0.81 0.70 0.53 0.52
0.17 0.05 0.06 0.18 0.25 0.28 0.28 0.18 0.10 0.06 0.05 0.06 0.14 0.13 0.08 0.05 0.09 0.12 0.18 0.27 0.40 0.52 0.59 0.68 0.78 0.79 0.82 0.80 0.75 0.80 0.87 0.82 0.80 0.59 0.33 0.31 0.40 0.63 1.00 1.11 1.23 1.32 1.30 1.25 1.23 1.36 1.31 1.31 1.20 1.09 0.89 0.72 0.58 0.62
0.16 0.15 0.19 0.25 0.21 0.16 0.15 0.12 0.10 0.10 0.10 0.14 0.16 0.14 0.06 0.06 0.10 0.14 0.18 0.26 0.36 0.53 0.71 0.93 1.02 1.03 0.89 0.77 0.76 0.81 1.00 1.07 1.00 0.89 0.71 0.47 0.44 0.55 0.81 1.05 1.17 1.21 1.29 1.30 1.21 1.21 1.25 1.16 1.05 0.97 0.91 0.81 0.73 0.73
0.24 0.22 0.20 0.19 0.17 0.14 0.18 0.24 0.27 0.26 0.22 0.18 0.16 0.16 0.11 0.08 0.09 0.10 0.14 0.22 0.30 0.51 0.77 0.88 0.97 1.07 1.02 0.85 0.82 0.77 0.74 0.79 0.88 0.91 0.91 0.93 0.90 0.94 1.06 1.24 1.28 1.25 1.24 1.24 1.15 1.05 0.98 0.81 0.68 0.64 0.62 0.59 0.60 0.57
0.27 0.25 0.18 0.17 0.21 0.27 0.29 0.28 0.26 0.24 0.23 0.19 0.15 0.15 0.14 0.14 0.10 0.05 0.11 0.23 0.37 0.56 0.77 0.84 0.79 0.81 0.88 0.83 0.79 0.79 0.76 0.69 0.68 0.74 0.83 0.94 0.93 0.90 1.09 1.15 1.08 1.06 1.13 1.16 1.07 1.00 0.92 0.86 0.82 0.78 0.75 0.75 0.70 0.64
0.31 0.31 0.27 0.25 0.30 0.31 0.28 0.25 0.23 0.20 0.17 0.14 0.12 0.12 0.12 0.16 0.16 0.11 0.16 0.25 0.33 0.38 0.47 0.55 0.64 0.75 0.79 0.75 0.69 0.70 0.75 0.81 0.81 0.87 0.97 1.00 0.95 0.98 1.10 0.93 0.85 0.88 0.90 1.01 1.04 0.96 0.95 0.92 0.84 0.79 0.77 0.74 0.72 0.71